OPS 5712 (P/L 152)

Satellite information

Favourite Embed

Satellite Type and Status

PAYLOADIN ORBIT

Key statistics

Satellite OPS 5712 (P/L 152) at a glance.

Uptime

21382

Days in orbit

Revolutions

≈ 14.0

Per day

Orbit

LEO

Low Earth Orbit

Inclination

70.0

Latest

Satellite identification and parameters

Extended collection of information and parameters for OPS 5712 (P/L 152).

Object identification

Identified? True

Debris? False

Object name: OPS 5712 (P/L 152)

International designator: 1967-053G

Object number (NORAD): 2873

Object ID (CCSDS): 2873

Country: UNITED STATES OF AMERICA (US)

Current information (Y/N): Y

RCS size: MEDIUM

Orbital parameters

Period: 102.969 minutes

Inclination: 69.9746 deg

SMA: 7277.219 km

Apoapsis: 903.7 km

Periapsis: 894.468 km

RAAN: 93.34 deg

Eccentricy: 0.00063427

Argument of periapsis: 15.6163 deg

Mean anomaly: 356.0942 deg

Mean motion: 13.98474649 rev/day

Mean motion (dot): 0.00000192 rev/day2

B* drag term: 0.00017164782 1/REarth

Two-line elements (TLE)

Creation date: Dec. 11, 2025, 7:14 p.m.

Reference frame: TEME

Reference center: EARTH

Epoch: Dec. 11, 2025, 1:11 p.m. UTC

TLE line 0: 0 OPS 5712 (P/L 152)

TLE line 1: 1 02873U 67053G 25345.54947767 .00000192 00000-0 17165-3 0 9994

TLE line 2: 2 02873 69.9746 93.3400 0006343 15.6163 356.0942 13.98474649982283

Live tracking on map

Real-time ground track for satellite OPS 5712 (P/L 152).

In-orbit conjunctions

There are no conjunctions computed for OPS 5712 (P/L 152), at the moment. Check back to stay up to date, as we update our databases every day.

Go to all conjunctions

Associated space launch

Poppy was the follow-on ELINT system, which succeeded the Grab ELINT satellite system.

OPS 5712 (P/L 152) was lifted into orbit during the mission ‘Thor SLV-2 Agena D | Poppy 7A,B,C,D’, on board a Thor SLV-2 Agena D space rocket.

The launch took place on May 31, 1967, 9:30 a.m. from Space Launch Complex 2W.

For more information about the launch, click the button.

Launch to space Thor SLV-2 Agena D | Poppy 7A,B,C,D
Thor SLV-2 Agena D | Poppy 7A,B,C,D

Agency: N/A

Status: Launch Successful

Launch date: May 31, 1967, 9:30 a.m. UTC

Rocket: Thor SLV-2 Agena D

Launch pad: Space Launch Complex 2W

Location: Vandenberg SFB, CA, USA

...

Latest news about this satellite

There are no fresh news available about this satellite. Check back as we update our databases every day.


Newsletter sign-up

Weekly statistics, charts and insights to help you stay on top of the space industry.